CZ-6A DEB, 54939

Orbit data source: Space-Track

CZ-6A DEB, 54939 is space debris in SSO originally from a launch on Fri, 11 Nov 2022 UTC launched from the Taiyaun Space Center, China (TSC). Debris objects in space refer to the collection of defunct objects orbiting the Earth. Examples of debris include non-operational satellites, rocket bodies, and fragments generated from explosions, collisions, or faulty payload assembly.

Loading next visibility...
Identifier
54939, 2022-151SC
Orbit
SSO
Country
Flag of CNCN / PRC
Related business
Manufacturer
SAST
Mission
Spacecraft
Bus & Motor
Unknown
Mass
Unknown
Launch date (UTC)
2022-11-11 (4 years ago)
Launch vehicle
Unknown
Launch site
Taiyaun Space Center, China (TSC)
Object type
Payload
Rocket body
Debris
Shape & HBR
Unknown shape, 1.1 m
Radar Cross Section
Medium (>0.1 m² and <1 m²)

Expand to show TLE details & history
Last TLE update: 17 hours ago

TLE from 17 hours ago
0 CZ-6A DEB
1 54939U 22151SC  26265.20191939  .00002545  00000-0  79131-3 0  9996
2 54939  99.0594   3.7634 0069340 178.7829 181.3539 14.40577857201411
Epoch: 2026-09-22T04:50Z
TLE epoch observation values (Epoch: 2026-09-22T04:50:45.835Z)
Latitude
-0.00001°
Longitude
-69.99836°
Altitude
808.99 km
Speed
7.423 km/s
True Right ascension
00h 15m 03s
True Declination
0° 00' 00"
Sunlit
Object was in full shadow at epoch
Visualization orbit readout
Latitude
Unknown
Longitude
Unknown
Altitude
Unknown
Speed
Unknown
Apparent Right ascension
Unknown
Apparent Declination
Unknown
Sunlit
N/A
Visualization observer readout
Local Sidereal Time
14:53:50
Azimuth
Unknown
Elevation
Unknown
Doppler factor
Unknown
Orbital elements
Apogee altitude
803.19 km
Perigee altitude
704.286 km
Semi-major axis
7,131.875 km
Eccentricity
0.00693
Inclination
99.0594°
RAAN
3.7634°
Arg. of periapsis
178.7829°
True anomaly
181.33529°
Mean anomaly
181.3539°
Eccentric anomaly
181.34458°
Mean motion
3.60361 °/min
Orbital period
99.9 mins
BSTAR
0.00079131
Loading maneuver chart data...
Computing Atmospheric mass density...
Loading historical data...
Loading historical data...
Loading historical data...
Loading historical data...
Loading historical data...
Loading historical data...
Loading historical data...

Documentation

Showing up to 5 results
|